Zurück zum Katalog

SL-16 DEB

AktivLEO
NORAD 16391·DEBRIS·🇷🇺 Russia

Gestartet Oct 22, 1985 von Baikonur Cosmodrome

Loading…

Nächste Überflüge (nächste 24 Stunden)

TLE

AktuellSource: Space-Track

Epoche: Sep 14, 2026, 13:53 UTC

1 16391U 85097E   26257.57856778  .00000080  00000-0  10802-3 0  9996
2 16391  70.9951 317.5959 0186908  72.9548 357.8364 13.77227848 54126

Verfolge SL-16 DEB in Echtzeit mit AllMySat

Download on the App Store